Find Starlink 5562

NORAD ID: 56336 Int'l Des: 2023-058 Owner: SPXS Country: US Constellation: starlink operational
LEOCIRCULARRETROGRADESSO

当前视图

正在加载3D地球...

About Starlink 5562

Starlink 5562 (NORAD 56336) is a starlink constellation satellite (v1.5) launched Apr 27, 2023 by SPXS of US. It operates in LEO, CIRCULAR, RETROGRADE, SSO orbit with a mass of 300.00 kg.

关于 Starlink 5562

正在加载描述...

即将过境

Passes for default location (London). Set your location on the main map for personalized predictions.

高度历史

Loading altitude history...

两行轨道根数

1 56336U 23058V 26171.42657481 .00012259 00000-0 85346-3 0 9993
2 56336 97.3348 170.2947 0002475 93.7528 266.3983 15.05592025173586
Epoch: Jun 20, 2026 • Age: 23 hours

当前状态

高度 579.4 km
速度 7.57 km/s
星下点 -80.14°S, 111.82°W
发射日期 Apr 27, 2023
运行时间 3.1 years
类型 internet

技术详情

分类 Payload
质量 300.00 kg
干质量 260.00 kg
总质量 300.00 kg
长度 0.20 m
直径 2.80 m
跨度 9.00 m
形状 Box + pan
制造商 SPXS
平台类型 Starlink
阶段状态 In Orbit
所有者/国家 SPXS/US

Most Searched